Year,Month,Day,Hour,Minute,Value (Times are PST for temperature in C)
2021,04,15,00,00,5.40
2021,04,15,00,01,5.40
2021,04,15,00,02,5.40
2021,04,15,00,03,5.40
2021,04,15,00,04,5.40
2021,04,15,00,05,5.40
2021,04,15,00,06,5.40
2021,04,15,00,07,5.40
2021,04,15,00,08,5.30
2021,04,15,00,09,5.30
2021,04,15,00,10,5.30
2021,04,15,00,11,5.30
2021,04,15,00,12,5.30
2021,04,15,00,13,5.30
2021,04,15,00,14,5.30
2021,04,15,00,15,5.20
2021,04,15,00,16,5.20
2021,04,15,00,17,5.20
2021,04,15,00,18,5.20
2021,04,15,00,19,5.20
2021,04,15,00,20,5.20
2021,04,15,00,21,5.20
2021,04,15,00,22,5.20
2021,04,15,00,23,5.20
2021,04,15,00,24,5.20
2021,04,15,00,25,5.10
2021,04,15,00,26,5.10
2021,04,15,00,27,5.10
2021,04,15,00,28,5.10
2021,04,15,00,29,5.10
2021,04,15,00,30,5.10
2021,04,15,00,31,5.10
2021,04,15,00,32,5.10
2021,04,15,00,33,5.10
2021,04,15,00,34,5.10
2021,04,15,00,35,5.10
2021,04,15,00,36,5.10
2021,04,15,00,37,5.10
2021,04,15,00,38,5.00
2021,04,15,00,39,5.00
2021,04,15,00,40,5.00
2021,04,15,00,41,5.00
2021,04,15,00,42,5.00
2021,04,15,00,43,5.00
2021,04,15,00,44,5.00
2021,04,15,00,45,5.00
2021,04,15,00,46,5.00
2021,04,15,00,47,5.00
2021,04,15,00,48,5.00
2021,04,15,00,49,4.90
2021,04,15,00,50,4.90
2021,04,15,00,51,4.90
2021,04,15,00,52,4.90
2021,04,15,00,53,4.90
2021,04,15,00,54,4.90
2021,04,15,00,55,4.90
2021,04,15,00,56,4.90
2021,04,15,00,57,4.90
2021,04,15,00,58,4.90
2021,04,15,00,59,4.90
2021,04,15,01,00,4.90
2021,04,15,01,01,4.90
2021,04,15,01,02,4.90
2021,04,15,01,03,4.90
2021,04,15,01,04,4.90
2021,04,15,01,05,4.80
2021,04,15,01,06,4.80
2021,04,15,01,07,4.80
2021,04,15,01,08,4.80
2021,04,15,01,09,4.80
2021,04,15,01,10,4.80
2021,04,15,01,11,4.80
2021,04,15,01,12,4.80
2021,04,15,01,13,4.80
2021,04,15,01,14,4.80
2021,04,15,01,15,4.80
2021,04,15,01,16,4.80
2021,04,15,01,17,4.80
2021,04,15,01,18,4.80
2021,04,15,01,19,4.70
2021,04,15,01,20,4.70
2021,04,15,01,21,4.70
2021,04,15,01,22,4.70
2021,04,15,01,23,4.70
2021,04,15,01,24,4.70
2021,04,15,01,25,4.70
2021,04,15,01,26,4.70
2021,04,15,01,27,4.70
2021,04,15,01,28,4.60
2021,04,15,01,29,4.60
2021,04,15,01,30,4.60
2021,04,15,01,31,4.60
2021,04,15,01,32,4.60
2021,04,15,01,33,4.60
2021,04,15,01,34,4.60
2021,04,15,01,35,4.60
2021,04,15,01,36,4.60
2021,04,15,01,37,4.60
2021,04,15,01,38,4.60
2021,04,15,01,39,4.60
2021,04,15,01,40,4.60
2021,04,15,01,41,4.60
2021,04,15,01,42,4.60
2021,04,15,01,43,4.60
2021,04,15,01,44,4.60
2021,04,15,01,45,4.60
2021,04,15,01,46,4.50
2021,04,15,01,47,4.50
2021,04,15,01,48,4.50
2021,04,15,01,49,4.50
2021,04,15,01,50,4.50
2021,04,15,01,51,4.50
2021,04,15,01,52,4.50
2021,04,15,01,53,4.50
2021,04,15,01,54,4.50
2021,04,15,01,55,4.50
2021,04,15,01,56,4.50
2021,04,15,01,57,4.40
2021,04,15,01,58,4.40
2021,04,15,01,59,4.40
2021,04,15,02,00,4.40
2021,04,15,02,01,4.40
2021,04,15,02,02,4.40
2021,04,15,02,03,4.40
2021,04,15,02,04,4.40
2021,04,15,02,05,4.40
2021,04,15,02,06,4.40
2021,04,15,02,07,4.40
2021,04,15,02,08,4.40
2021,04,15,02,09,4.40
2021,04,15,02,10,4.40
2021,04,15,02,11,4.40
2021,04,15,02,12,4.40
2021,04,15,02,13,4.40
2021,04,15,02,14,4.40
2021,04,15,02,15,4.40
2021,04,15,02,16,4.40
2021,04,15,02,17,4.40
2021,04,15,02,18,4.40
2021,04,15,02,19,4.40
2021,04,15,02,20,4.40
2021,04,15,02,21,4.40
2021,04,15,02,22,4.40
2021,04,15,02,23,4.40
2021,04,15,02,24,4.40
2021,04,15,02,25,4.40
2021,04,15,02,26,4.40
2021,04,15,02,27,4.40
2021,04,15,02,28,4.40
2021,04,15,02,29,4.40
2021,04,15,02,30,4.40
2021,04,15,02,31,4.40
2021,04,15,02,32,4.40
2021,04,15,02,33,4.40
2021,04,15,02,34,4.50
2021,04,15,02,35,4.50
2021,04,15,02,36,4.50
2021,04,15,02,37,4.50
2021,04,15,02,38,4.50
2021,04,15,02,39,4.50
2021,04,15,02,40,4.50
2021,04,15,02,41,4.60
2021,04,15,02,42,4.60
2021,04,15,02,43,4.60
2021,04,15,02,44,4.60
2021,04,15,02,45,4.60
2021,04,15,02,46,4.60
2021,04,15,02,47,4.60
2021,04,15,02,48,4.60
2021,04,15,02,49,4.60
2021,04,15,02,50,4.60
2021,04,15,02,51,4.60
2021,04,15,02,52,4.60
2021,04,15,02,53,4.60
2021,04,15,02,54,4.60
2021,04,15,02,55,4.60
2021,04,15,02,56,4.60
2021,04,15,02,57,4.60
2021,04,15,02,58,4.50
2021,04,15,02,59,4.50
2021,04,15,03,00,4.50
2021,04,15,03,01,4.50
2021,04,15,03,02,4.50
2021,04,15,03,03,4.50
2021,04,15,03,04,4.40
2021,04,15,03,05,4.40
2021,04,15,03,06,4.40
2021,04,15,03,07,4.40
2021,04,15,03,08,4.40
2021,04,15,03,09,4.40
2021,04,15,03,10,4.40
2021,04,15,03,11,4.40
2021,04,15,03,12,4.40
2021,04,15,03,13,4.40
2021,04,15,03,14,4.40
2021,04,15,03,15,4.40
2021,04,15,03,16,4.40
2021,04,15,03,17,4.40
2021,04,15,03,18,4.30
2021,04,15,03,19,4.40
2021,04,15,03,20,4.40
2021,04,15,03,21,4.30
2021,04,15,03,22,4.40
2021,04,15,03,23,4.40
2021,04,15,03,24,4.40
2021,04,15,03,25,4.40
2021,04,15,03,26,4.40
2021,04,15,03,27,4.40
2021,04,15,03,28,4.40
2021,04,15,03,29,4.40
2021,04,15,03,30,4.40
2021,04,15,03,31,4.40
2021,04,15,03,32,4.40
2021,04,15,03,33,4.40
2021,04,15,03,34,4.40
2021,04,15,03,35,4.40
2021,04,15,03,36,4.40
2021,04,15,03,37,4.40
2021,04,15,03,38,4.40
2021,04,15,03,39,4.40
2021,04,15,03,40,4.40
2021,04,15,03,41,4.40
2021,04,15,03,42,4.40
2021,04,15,03,43,4.40
2021,04,15,03,44,4.40
2021,04,15,03,45,4.40
2021,04,15,03,46,4.40
2021,04,15,03,47,4.40
2021,04,15,03,48,4.30
2021,04,15,03,49,4.30
2021,04,15,03,50,4.30
2021,04,15,03,51,4.30
2021,04,15,03,52,4.30
2021,04,15,03,53,4.30
2021,04,15,03,54,4.30
2021,04,15,03,55,4.30
2021,04,15,03,56,4.30
2021,04,15,03,57,4.30
2021,04,15,03,58,4.30
2021,04,15,03,59,4.30
2021,04,15,04,00,4.30
2021,04,15,04,01,4.30
2021,04,15,04,02,4.30
2021,04,15,04,03,4.30
2021,04,15,04,04,4.30
2021,04,15,04,05,4.30
2021,04,15,04,06,4.30
2021,04,15,04,07,4.30
2021,04,15,04,08,4.30
2021,04,15,04,09,4.30
2021,04,15,04,10,4.30
2021,04,15,04,11,4.30
2021,04,15,04,12,4.30
2021,04,15,04,13,4.30
2021,04,15,04,14,4.30
2021,04,15,04,15,4.40
2021,04,15,04,16,4.40
2021,04,15,04,17,4.40
2021,04,15,04,18,4.40
2021,04,15,04,19,4.40
2021,04,15,04,20,4.40
2021,04,15,04,21,4.40
2021,04,15,04,22,4.40
2021,04,15,04,23,4.40
2021,04,15,04,24,4.50
2021,04,15,04,25,4.50
2021,04,15,04,26,4.50
2021,04,15,04,27,4.50
2021,04,15,04,28,4.50
2021,04,15,04,29,4.50
2021,04,15,04,30,4.40
2021,04,15,04,31,4.40
2021,04,15,04,32,4.40
2021,04,15,04,33,4.40
2021,04,15,04,34,4.40
2021,04,15,04,35,4.40
2021,04,15,04,36,4.30
2021,04,15,04,37,4.30
2021,04,15,04,38,4.30
2021,04,15,04,39,4.30
2021,04,15,04,40,4.30
2021,04,15,04,41,4.30
2021,04,15,04,42,4.30
2021,04,15,04,43,4.20
2021,04,15,04,44,4.20
2021,04,15,04,45,4.20
2021,04,15,04,46,4.20
2021,04,15,04,47,4.20
2021,04,15,04,48,4.20
2021,04,15,04,49,4.20
2021,04,15,04,50,4.20
2021,04,15,04,51,4.20
2021,04,15,04,52,4.20
2021,04,15,04,53,4.20
2021,04,15,04,54,4.20
2021,04,15,04,55,4.20
2021,04,15,04,56,4.20
2021,04,15,04,57,4.10
2021,04,15,04,58,4.10
2021,04,15,04,59,4.10
2021,04,15,05,00,4.10
2021,04,15,05,01,4.10
2021,04,15,05,02,4.10
2021,04,15,05,03,4.10
2021,04,15,05,04,4.10
2021,04,15,05,05,4.10
2021,04,15,05,06,4.10
2021,04,15,05,07,4.10
2021,04,15,05,08,4.10
2021,04,15,05,09,4.10
2021,04,15,05,10,4.10
2021,04,15,05,11,4.10
2021,04,15,05,12,4.00
2021,04,15,05,13,4.00
2021,04,15,05,14,4.00
2021,04,15,05,15,4.00
2021,04,15,05,16,4.00
2021,04,15,05,17,3.90
2021,04,15,05,18,3.90
2021,04,15,05,19,3.90
2021,04,15,05,20,3.90
2021,04,15,05,21,3.90
2021,04,15,05,22,3.90
2021,04,15,05,23,3.90
2021,04,15,05,24,3.80
2021,04,15,05,25,3.80
2021,04,15,05,26,3.80
2021,04,15,05,27,3.80
2021,04,15,05,28,3.80
2021,04,15,05,29,3.80
2021,04,15,05,30,3.80
2021,04,15,05,31,3.80
2021,04,15,05,32,3.80
2021,04,15,05,33,3.80
2021,04,15,05,34,3.80
2021,04,15,05,35,3.80
2021,04,15,05,36,3.80
2021,04,15,05,37,3.70
2021,04,15,05,38,3.70
2021,04,15,05,39,3.70
2021,04,15,05,40,3.70
2021,04,15,05,41,3.70
2021,04,15,05,42,3.70
2021,04,15,05,43,3.70
2021,04,15,05,44,3.70
2021,04,15,05,45,3.70
2021,04,15,05,46,3.60
2021,04,15,05,47,3.60
2021,04,15,05,48,3.60
2021,04,15,05,49,3.60
2021,04,15,05,50,3.60
2021,04,15,05,51,3.60
2021,04,15,05,52,3.60
2021,04,15,05,53,3.60
2021,04,15,05,54,3.50
2021,04,15,05,55,3.50
2021,04,15,05,56,3.50
2021,04,15,05,57,3.50
2021,04,15,05,58,3.50
2021,04,15,05,59,3.50
2021,04,15,06,00,3.50
2021,04,15,06,01,3.50
2021,04,15,06,02,3.50
2021,04,15,06,03,3.50
2021,04,15,06,04,3.50
2021,04,15,06,05,3.40
2021,04,15,06,06,3.40
2021,04,15,06,07,3.40
2021,04,15,06,08,3.40
2021,04,15,06,09,3.40
2021,04,15,06,10,3.40
2021,04,15,06,11,3.40
2021,04,15,06,12,3.30
2021,04,15,06,13,3.30
2021,04,15,06,14,3.30
2021,04,15,06,15,3.30
2021,04,15,06,16,3.30
2021,04,15,06,17,3.30
2021,04,15,06,18,3.30
2021,04,15,06,19,3.30
2021,04,15,06,20,3.30
2021,04,15,06,21,3.30
2021,04,15,06,22,3.30
2021,04,15,06,23,3.30
2021,04,15,06,24,3.20
2021,04,15,06,25,3.20
2021,04,15,06,26,3.20
2021,04,15,06,27,3.20
2021,04,15,06,28,3.20
2021,04,15,06,29,3.20
2021,04,15,06,30,3.20
2021,04,15,06,31,3.20
2021,04,15,06,32,3.20
2021,04,15,06,33,3.20
2021,04,15,06,34,3.20
2021,04,15,06,35,3.20
2021,04,15,06,36,3.20
2021,04,15,06,37,3.20
2021,04,15,06,38,3.20
2021,04,15,06,39,3.20
2021,04,15,06,40,3.20
2021,04,15,06,41,3.20
2021,04,15,06,42,3.20
2021,04,15,06,43,3.20
2021,04,15,06,44,3.30
2021,04,15,06,45,3.30
2021,04,15,06,46,3.30
2021,04,15,06,47,3.30
2021,04,15,06,48,3.30
2021,04,15,06,49,3.30
2021,04,15,06,50,3.30
2021,04,15,06,51,3.30
2021,04,15,06,52,3.30
2021,04,15,06,53,3.30
2021,04,15,06,54,3.30
2021,04,15,06,55,3.30
2021,04,15,06,56,3.30
2021,04,15,06,57,3.30
2021,04,15,06,58,3.30
2021,04,15,06,59,3.30
2021,04,15,07,00,3.30
2021,04,15,07,01,3.40
2021,04,15,07,02,3.40
2021,04,15,07,03,3.40
2021,04,15,07,04,3.40
2021,04,15,07,05,3.40
2021,04,15,07,06,3.40
2021,04,15,07,07,3.40
2021,04,15,07,08,3.40
2021,04,15,07,09,3.40
2021,04,15,07,10,3.50
2021,04,15,07,11,3.50
2021,04,15,07,12,3.50
2021,04,15,07,13,3.50
2021,04,15,07,14,3.50
2021,04,15,07,15,3.50
2021,04,15,07,16,3.50
2021,04,15,07,17,3.60
2021,04,15,07,18,3.60
2021,04,15,07,19,3.60
2021,04,15,07,20,3.60
2021,04,15,07,21,3.70
2021,04,15,07,22,3.70
2021,04,15,07,23,3.70
2021,04,15,07,24,3.80
2021,04,15,07,25,3.80
2021,04,15,07,26,3.80
2021,04,15,07,27,3.80
2021,04,15,07,28,3.80
2021,04,15,07,29,3.80
2021,04,15,07,30,3.80
2021,04,15,07,31,3.90
2021,04,15,07,32,3.90
2021,04,15,07,33,3.90
2021,04,15,07,34,3.90
2021,04,15,07,35,3.90
2021,04,15,07,36,4.00
2021,04,15,07,37,4.00
2021,04,15,07,38,4.00
2021,04,15,07,39,4.10
2021,04,15,07,40,4.10
2021,04,15,07,41,4.10
2021,04,15,07,42,4.10
2021,04,15,07,43,4.20
2021,04,15,07,44,4.20
2021,04,15,07,45,4.20
2021,04,15,07,46,4.20
2021,04,15,07,47,4.30
2021,04,15,07,48,4.30
2021,04,15,07,49,4.40
2021,04,15,07,50,4.40
2021,04,15,07,51,4.50
2021,04,15,07,52,4.50
2021,04,15,07,53,4.60
2021,04,15,07,54,4.60
2021,04,15,07,55,4.70
2021,04,15,07,56,4.70
2021,04,15,07,57,4.70
2021,04,15,07,58,4.80
2021,04,15,07,59,4.80
2021,04,15,08,00,4.90
2021,04,15,08,01,4.90
2021,04,15,08,02,4.90
2021,04,15,08,03,5.00
2021,04,15,08,04,5.10
2021,04,15,08,05,5.10
2021,04,15,08,06,5.20
2021,04,15,08,07,5.20
2021,04,15,08,08,5.30
2021,04,15,08,09,5.40
2021,04,15,08,10,5.50
2021,04,15,08,11,5.60
2021,04,15,08,12,5.80
2021,04,15,08,13,5.90
2021,04,15,08,14,6.00
2021,04,15,08,15,6.20
2021,04,15,08,16,6.30
2021,04,15,08,17,6.50
2021,04,15,08,18,6.60
2021,04,15,08,19,6.80
2021,04,15,08,20,6.90
2021,04,15,08,21,7.10
2021,04,15,08,22,7.20
2021,04,15,08,23,7.40
2021,04,15,08,24,7.50
2021,04,15,08,25,7.70
2021,04,15,08,26,7.80
2021,04,15,08,27,8.00
2021,04,15,08,28,8.10
2021,04,15,08,29,8.30
2021,04,15,08,30,8.40
2021,04,15,08,31,8.60
2021,04,15,08,32,8.70
2021,04,15,08,33,8.90
2021,04,15,08,34,9.00
2021,04,15,08,35,9.20
2021,04,15,08,36,9.40
2021,04,15,08,37,9.60
2021,04,15,08,38,9.70
2021,04,15,08,39,9.80
2021,04,15,08,40,10.00
2021,04,15,08,41,10.00
2021,04,15,08,42,10.20
2021,04,15,08,43,10.30
2021,04,15,08,44,10.40
2021,04,15,08,45,10.60
2021,04,15,08,46,10.70
2021,04,15,08,47,10.90
2021,04,15,08,48,11.10
2021,04,15,08,49,11.20
2021,04,15,08,50,11.40
2021,04,15,08,51,11.60
2021,04,15,08,52,11.80
2021,04,15,08,53,12.00
2021,04,15,08,54,12.10
2021,04,15,08,55,12.30
2021,04,15,08,56,12.60
2021,04,15,08,57,12.80
2021,04,15,08,58,13.00
2021,04,15,08,59,13.10
2021,04,15,09,00,13.30
2021,04,15,09,01,13.40
2021,04,15,09,02,13.40
2021,04,15,09,03,13.50
2021,04,15,09,04,13.60
2021,04,15,09,05,13.60
2021,04,15,09,06,13.60
2021,04,15,09,07,13.60
2021,04,15,09,08,13.60
2021,04,15,09,09,13.70
2021,04,15,09,10,13.80
2021,04,15,09,11,13.90
2021,04,15,09,12,14.00
2021,04,15,09,13,14.10
2021,04,15,09,14,14.10
2021,04,15,09,15,14.20
2021,04,15,09,16,14.30
2021,04,15,09,17,14.40
2021,04,15,09,18,14.50
2021,04,15,09,19,14.60
2021,04,15,09,20,14.60
2021,04,15,09,21,14.70
2021,04,15,09,22,14.80
2021,04,15,09,23,15.00
2021,04,15,09,24,15.00
2021,04,15,09,25,15.00
2021,04,15,09,26,15.20
2021,04,15,09,27,15.30
2021,04,15,09,28,15.30
2021,04,15,09,29,15.30
2021,04,15,09,30,15.40
2021,04,15,09,31,15.50
2021,04,15,09,32,15.50
2021,04,15,09,33,15.60
2021,04,15,09,34,15.60
2021,04,15,09,35,15.70
2021,04,15,09,36,15.70
2021,04,15,09,37,15.70
2021,04,15,09,38,15.70
2021,04,15,09,39,15.70
2021,04,15,09,40,15.80
2021,04,15,09,41,15.80
2021,04,15,09,42,15.80
2021,04,15,09,43,15.80
2021,04,15,09,44,15.80
2021,04,15,09,45,15.80
2021,04,15,09,46,15.90
2021,04,15,09,47,15.90
2021,04,15,09,48,16.00
2021,04,15,09,49,16.00
2021,04,15,09,50,16.10
2021,04,15,09,51,16.10
2021,04,15,09,52,16.10
2021,04,15,09,53,16.20
2021,04,15,09,54,16.20
2021,04,15,09,55,16.20
2021,04,15,09,56,16.20
2021,04,15,09,57,16.10
2021,04,15,09,58,16.10
2021,04,15,09,59,16.20
2021,04,15,10,00,16.20
2021,04,15,10,01,16.20
2021,04,15,10,02,16.20
2021,04,15,10,03,16.20
2021,04,15,10,04,16.20
2021,04,15,10,05,16.30
2021,04,15,10,06,16.40
2021,04,15,10,07,16.40
2021,04,15,10,08,16.40
2021,04,15,10,09,16.50
2021,04,15,10,10,16.50
2021,04,15,10,11,16.50
2021,04,15,10,12,16.40
2021,04,15,10,13,16.40
2021,04,15,10,14,16.40
2021,04,15,10,15,16.40
2021,04,15,10,16,16.50
2021,04,15,10,17,16.50
2021,04,15,10,18,16.50
2021,04,15,10,19,16.50
2021,04,15,10,20,16.40
2021,04,15,10,21,16.40
2021,04,15,10,22,16.30
2021,04,15,10,23,16.30
2021,04,15,10,24,16.30
2021,04,15,10,25,16.30
2021,04,15,10,26,16.30
2021,04,15,10,27,16.30
2021,04,15,10,28,16.30
2021,04,15,10,29,16.40
2021,04,15,10,30,16.40
2021,04,15,10,31,16.40
2021,04,15,10,32,16.50
2021,04,15,10,33,16.60
2021,04,15,10,34,16.60
2021,04,15,10,35,16.70
2021,04,15,10,36,16.70
2021,04,15,10,37,16.80
2021,04,15,10,38,16.80
2021,04,15,10,39,16.90
2021,04,15,10,40,16.90
2021,04,15,10,41,17.00
2021,04,15,10,42,17.00
2021,04,15,10,43,17.00
2021,04,15,10,44,17.00
2021,04,15,10,45,16.90
2021,04,15,10,46,16.90
2021,04,15,10,47,16.90
2021,04,15,10,48,16.90
2021,04,15,10,49,16.90
2021,04,15,10,50,16.90
2021,04,15,10,51,16.90
2021,04,15,10,52,16.90
2021,04,15,10,53,16.90
2021,04,15,10,54,16.90
2021,04,15,10,55,16.90
2021,04,15,10,56,17.00
2021,04,15,10,57,17.00
2021,04,15,10,58,17.10
2021,04,15,10,59,17.20
2021,04,15,11,00,17.20
2021,04,15,11,01,17.30
2021,04,15,11,02,17.30
2021,04,15,11,03,17.30
2021,04,15,11,04,17.40
2021,04,15,11,05,17.50
2021,04,15,11,06,17.50
2021,04,15,11,07,17.50
2021,04,15,11,08,17.50
2021,04,15,11,09,17.40
2021,04,15,11,10,17.40
2021,04,15,11,11,17.40
2021,04,15,11,12,17.40
2021,04,15,11,13,17.30
2021,04,15,11,14,17.30
2021,04,15,11,15,17.20
2021,04,15,11,16,17.20
2021,04,15,11,17,17.10
2021,04,15,11,18,17.10
2021,04,15,11,19,17.10
2021,04,15,11,20,17.10
2021,04,15,11,21,17.10
2021,04,15,11,22,17.10
2021,04,15,11,23,17.20
2021,04,15,11,24,17.20
2021,04,15,11,25,17.30
2021,04,15,11,26,17.30
2021,04,15,11,27,17.40
2021,04,15,11,28,17.40
2021,04,15,11,29,17.30
2021,04,15,11,30,17.30
2021,04,15,11,31,17.30
2021,04,15,11,32,17.20
2021,04,15,11,33,17.20
2021,04,15,11,34,17.20
2021,04,15,11,35,17.20
2021,04,15,11,36,17.20
2021,04,15,11,37,17.20
2021,04,15,11,38,17.20
2021,04,15,11,39,17.30
2021,04,15,11,40,17.30
2021,04,15,11,41,17.20
2021,04,15,11,42,17.20
2021,04,15,11,43,17.20
2021,04,15,11,44,17.30
2021,04,15,11,45,17.30
2021,04,15,11,46,17.30
2021,04,15,11,47,17.30
2021,04,15,11,48,17.40
2021,04,15,11,49,17.40
2021,04,15,11,50,17.40
2021,04,15,11,51,17.30
2021,04,15,11,52,17.30
2021,04,15,11,53,17.30
2021,04,15,11,54,17.30
2021,04,15,11,55,17.30
2021,04,15,11,56,17.40
2021,04,15,11,57,17.40
2021,04,15,11,58,17.40
2021,04,15,11,59,17.40
2021,04,15,12,00,17.40
2021,04,15,12,01,17.50
2021,04,15,12,02,17.50
2021,04,15,12,03,17.60
2021,04,15,12,04,17.60
2021,04,15,12,05,17.60
2021,04,15,12,06,17.60
2021,04,15,12,07,17.60
2021,04,15,12,08,17.70
2021,04,15,12,09,17.70
2021,04,15,12,10,17.70
2021,04,15,12,11,17.70
2021,04,15,12,12,17.70
2021,04,15,12,13,17.70
2021,04,15,12,14,17.70
2021,04,15,12,15,17.80
2021,04,15,12,16,17.80
2021,04,15,12,17,17.80
2021,04,15,12,18,17.90
2021,04,15,12,19,17.90
2021,04,15,12,20,17.90
2021,04,15,12,21,18.00
2021,04,15,12,22,18.00
2021,04,15,12,23,18.00
2021,04,15,12,24,18.10
2021,04,15,12,25,18.10
2021,04,15,12,26,18.20
2021,04,15,12,27,18.20
2021,04,15,12,28,18.30
2021,04,15,12,29,18.30
2021,04,15,12,30,18.30
2021,04,15,12,31,18.30
2021,04,15,12,32,18.30
2021,04,15,12,33,18.30
2021,04,15,12,34,18.30
2021,04,15,12,35,18.30
2021,04,15,12,36,18.30
2021,04,15,12,37,18.30
2021,04,15,12,38,18.30
2021,04,15,12,39,18.30
2021,04,15,12,40,18.30
2021,04,15,12,41,18.30
2021,04,15,12,42,18.30
2021,04,15,12,43,18.30
2021,04,15,12,44,18.30
2021,04,15,12,45,18.40
2021,04,15,12,46,18.40
2021,04,15,12,47,18.40
2021,04,15,12,48,18.40
2021,04,15,12,49,18.40
2021,04,15,12,50,18.50
2021,04,15,12,51,18.50
2021,04,15,12,52,18.60
2021,04,15,12,53,18.60
2021,04,15,12,54,18.70
2021,04,15,12,55,18.70
2021,04,15,12,56,18.70
2021,04,15,12,57,18.80
2021,04,15,12,58,18.80
2021,04,15,12,59,18.80
2021,04,15,13,00,18.90
2021,04,15,13,01,18.90
2021,04,15,13,02,18.90
2021,04,15,13,03,18.90
2021,04,15,13,04,18.80
2021,04,15,13,05,18.80
2021,04,15,13,06,18.80
2021,04,15,13,07,18.80
2021,04,15,13,08,18.80
2021,04,15,13,09,18.80
2021,04,15,13,10,18.80
2021,04,15,13,11,18.80
2021,04,15,13,12,18.80
2021,04,15,13,13,18.80
2021,04,15,13,14,18.90
2021,04,15,13,15,18.90
2021,04,15,13,16,18.90
2021,04,15,13,17,19.00
2021,04,15,13,18,19.10
2021,04,15,13,19,19.20
2021,04,15,13,20,19.20
2021,04,15,13,21,19.30
2021,04,15,13,22,19.30
2021,04,15,13,23,19.30
2021,04,15,13,24,19.20
2021,04,15,13,25,19.20
2021,04,15,13,26,19.10
2021,04,15,13,27,19.10
2021,04,15,13,28,19.10
2021,04,15,13,29,19.00
2021,04,15,13,30,19.00
2021,04,15,13,31,19.00
2021,04,15,13,32,19.00
2021,04,15,13,33,19.00
2021,04,15,13,34,19.00
2021,04,15,13,35,19.10
2021,04,15,13,36,19.10
2021,04,15,13,37,19.20
2021,04,15,13,38,19.30
2021,04,15,13,39,19.30
2021,04,15,13,40,19.40
2021,04,15,13,41,19.50
2021,04,15,13,42,19.60
2021,04,15,13,43,19.60
2021,04,15,13,44,19.60
2021,04,15,13,45,19.60
2021,04,15,13,46,19.70
2021,04,15,13,47,19.70
2021,04,15,13,48,19.80
2021,04,15,13,49,19.80
2021,04,15,13,50,19.90
2021,04,15,13,51,19.90
2021,04,15,13,52,19.90
2021,04,15,13,53,19.90
2021,04,15,13,54,19.90
2021,04,15,13,55,19.90
2021,04,15,13,56,19.90
2021,04,15,13,57,19.90
2021,04,15,13,58,19.90
2021,04,15,13,59,19.90
2021,04,15,14,00,19.90
2021,04,15,14,01,19.90
2021,04,15,14,02,19.90
2021,04,15,14,03,19.90
2021,04,15,14,04,19.90
2021,04,15,14,05,19.90
2021,04,15,14,06,20.00
2021,04,15,14,07,20.00
2021,04,15,14,08,20.00
2021,04,15,14,09,20.00
2021,04,15,14,10,20.00
2021,04,15,14,11,20.00
2021,04,15,14,12,20.00
2021,04,15,14,13,20.00
2021,04,15,14,14,20.00
2021,04,15,14,15,20.10
2021,04,15,14,16,20.10
2021,04,15,14,17,20.10
2021,04,15,14,18,20.10
2021,04,15,14,19,20.20
2021,04,15,14,20,20.10
2021,04,15,14,21,20.10
2021,04,15,14,22,20.10
2021,04,15,14,23,20.10
2021,04,15,14,24,20.10
2021,04,15,14,25,20.10
2021,04,15,14,26,20.10
2021,04,15,14,27,20.00
2021,04,15,14,28,19.90
2021,04,15,14,29,19.90
2021,04,15,14,30,19.80
2021,04,15,14,31,19.80
2021,04,15,14,32,19.80
2021,04,15,14,33,19.80
2021,04,15,14,34,19.80
2021,04,15,14,35,19.90
2021,04,15,14,36,19.90
2021,04,15,14,37,19.90
2021,04,15,14,38,20.00
2021,04,15,14,39,20.10
2021,04,15,14,40,20.10
2021,04,15,14,41,20.10
2021,04,15,14,42,20.10
2021,04,15,14,43,20.10
2021,04,15,14,44,20.20
2021,04,15,14,45,20.20
2021,04,15,14,46,20.20
2021,04,15,14,47,20.20
2021,04,15,14,48,20.30
2021,04,15,14,49,20.30
2021,04,15,14,50,20.30
2021,04,15,14,51,20.30
2021,04,15,14,52,20.40
2021,04,15,14,53,20.40
2021,04,15,14,54,20.50
2021,04,15,14,55,20.50
2021,04,15,14,56,20.60
2021,04,15,14,57,20.60
2021,04,15,14,58,20.60
2021,04,15,14,59,20.70
2021,04,15,15,00,20.70
2021,04,15,15,01,20.80
2021,04,15,15,02,20.70
2021,04,15,15,03,20.60
2021,04,15,15,04,20.50
2021,04,15,15,05,20.40
2021,04,15,15,06,20.30
2021,04,15,15,07,20.30
2021,04,15,15,08,20.20
2021,04,15,15,09,20.20
2021,04,15,15,10,20.20
2021,04,15,15,11,20.20
2021,04,15,15,12,20.20
2021,04,15,15,13,20.20
2021,04,15,15,14,20.10
2021,04,15,15,15,20.10
2021,04,15,15,16,20.10
2021,04,15,15,17,20.10
2021,04,15,15,18,20.10
2021,04,15,15,19,20.10
2021,04,15,15,20,20.10
2021,04,15,15,21,20.10
2021,04,15,15,22,20.10
2021,04,15,15,23,20.10
2021,04,15,15,24,20.10
2021,04,15,15,25,20.20
2021,04,15,15,26,20.20
2021,04,15,15,27,20.20
2021,04,15,15,28,20.20
2021,04,15,15,29,20.20
2021,04,15,15,30,20.20
2021,04,15,15,31,20.20
2021,04,15,15,32,20.20
2021,04,15,15,33,20.20
2021,04,15,15,34,20.20
2021,04,15,15,35,20.20
2021,04,15,15,36,20.20
2021,04,15,15,37,20.10
2021,04,15,15,38,20.10
2021,04,15,15,39,20.10
2021,04,15,15,40,20.10
2021,04,15,15,41,20.10
2021,04,15,15,42,20.10
2021,04,15,15,43,20.10
2021,04,15,15,44,20.20
2021,04,15,15,45,20.20
2021,04,15,15,46,20.20
2021,04,15,15,47,20.20
2021,04,15,15,48,20.30
2021,04,15,15,49,20.30
2021,04,15,15,50,20.40
2021,04,15,15,51,20.40
2021,04,15,15,52,20.40
2021,04,15,15,53,20.50
2021,04,15,15,54,20.50
2021,04,15,15,55,20.60
2021,04,15,15,56,20.60
2021,04,15,15,57,20.60
2021,04,15,15,58,20.60
2021,04,15,15,59,20.60
2021,04,15,16,00,20.60
2021,04,15,16,01,20.60
2021,04,15,16,02,20.60
2021,04,15,16,03,20.60
2021,04,15,16,04,20.60
2021,04,15,16,05,20.60
2021,04,15,16,06,20.60
2021,04,15,16,07,20.60
2021,04,15,16,08,20.50
2021,04,15,16,09,20.50
2021,04,15,16,10,20.50
2021,04,15,16,11,20.50
2021,04,15,16,12,20.50
2021,04,15,16,13,20.60
2021,04,15,16,14,20.60
2021,04,15,16,15,20.60
2021,04,15,16,16,20.60
2021,04,15,16,17,20.60
2021,04,15,16,18,20.60
2021,04,15,16,19,20.60
2021,04,15,16,20,20.60
2021,04,15,16,21,20.60
2021,04,15,16,22,20.60
2021,04,15,16,23,20.60
2021,04,15,16,24,20.60
2021,04,15,16,25,20.70
2021,04,15,16,26,20.70
2021,04,15,16,27,20.70
2021,04,15,16,28,20.70
2021,04,15,16,29,20.70
2021,04,15,16,30,20.70
2021,04,15,16,31,20.60
2021,04,15,16,32,20.60
2021,04,15,16,33,20.60
2021,04,15,16,34,20.60
2021,04,15,16,35,20.60
2021,04,15,16,36,20.60
2021,04,15,16,37,20.60
2021,04,15,16,38,20.60
2021,04,15,16,39,20.60
2021,04,15,16,40,20.60
2021,04,15,16,41,20.60
2021,04,15,16,42,20.60
2021,04,15,16,43,20.60
2021,04,15,16,44,20.60
2021,04,15,16,45,20.60
2021,04,15,16,46,20.60
2021,04,15,16,47,20.60
2021,04,15,16,48,20.70
2021,04,15,16,49,20.70
2021,04,15,16,50,20.70
2021,04,15,16,51,20.70
2021,04,15,16,52,20.70
2021,04,15,16,53,20.70
2021,04,15,16,54,20.70
2021,04,15,16,55,20.70
2021,04,15,16,56,20.70
2021,04,15,16,57,20.70
2021,04,15,16,58,20.70
2021,04,15,16,59,20.70
2021,04,15,17,00,20.70
2021,04,15,17,01,20.70
2021,04,15,17,02,20.70
2021,04,15,17,03,20.70
2021,04,15,17,04,20.70
2021,04,15,17,05,20.70
2021,04,15,17,06,20.70
2021,04,15,17,07,20.70
2021,04,15,17,08,20.70
2021,04,15,17,09,20.70
2021,04,15,17,10,20.60
2021,04,15,17,11,20.60
2021,04,15,17,12,20.70
2021,04,15,17,13,20.70
2021,04,15,17,14,20.70
2021,04,15,17,15,20.70
2021,04,15,17,16,20.80
2021,04,15,17,17,20.80
2021,04,15,17,18,20.90
2021,04,15,17,19,20.90
2021,04,15,17,20,20.90
2021,04,15,17,21,21.00
2021,04,15,17,22,21.00
2021,04,15,17,23,21.10
2021,04,15,17,24,21.10
2021,04,15,17,25,21.10
2021,04,15,17,26,21.10
2021,04,15,17,27,21.10
2021,04,15,17,28,21.10
2021,04,15,17,29,21.10
2021,04,15,17,30,21.20
2021,04,15,17,31,21.20
2021,04,15,17,32,21.10
2021,04,15,17,33,21.10
2021,04,15,17,34,21.10
2021,04,15,17,35,21.10
2021,04,15,17,36,21.10
2021,04,15,17,37,21.10
2021,04,15,17,38,21.10
2021,04,15,17,39,21.10
2021,04,15,17,40,21.10
2021,04,15,17,41,21.10
2021,04,15,17,42,21.00